Wind_Speed
27 28 27 27 29 29 30 30 31 32 34 33 34 34 33 32 33 33 33 33 34 35 36 36 36 35 35 35 36 37 37 36 36 36 36 37 37 36 38 38 37 36 35 35
26 26 26 28 28 28 29 30 32 32 33 33 33 33 33 32 33 33 34 34 35 35 36 36 36 36 36 36 35 36 36 37 37 37 36 37 38 37 37 37 38 38 37 36
27 26 26 28 28 29 30 30 31 33 34 34 34 34 33 33 33 33 34 35 35 35 35 37 37 36 37 37 37 36 37 37 37 37 37 37 38 38 37 37 38 38 38 38
28 27 27 28 28 29 30 31 32 33 34 34 35 36 32 33 34 34 34 35 36 35 36 37 38 38 38 38 38 38 38 37 37 38 38 38 38 38 37 37 38 38 38 38
28 28 28 28 28 30 31 31 32 33 34 34 34 36 33 33 34 34 35 35 36 36 36 37 38 38 38 38 38 38 38 38 38 38 39 39 39 39 38 38 38 39 39 39
29 29 29 29 29 30 31 32 33 34 35 36 34 35 34 33 33 34 35 35 36 36 37 37 38 38 39 39 39 38 39 39 39 38 38 39 39 39 39 38 39 40 40 40
31 31 30 30 30 30 30 32 33 35 36 37 35 36 35 33 33 33 35 35 36 36 37 38 38 38 39 39 40 40 40 40 40 39 39 39 39 40 40 40 40 40 41 41
32 32 31 31 31 31 31 32 34 35 37 37 35 36 35 33 33 34 35 36 36 37 38 38 38 38 39 40 40 40 41 41 41 41 41 40 41 41 42 42 41 41 41 41
34 34 33 32 32 32 33 33 34 36 37 38 38 36 34 33 34 34 35 36 37 37 38 38 39 40 40 40 41 41 41 41 42 42 42 42 43 43 44 43 43 43 43 43
34 35 34 33 34 34 34 34 34 35 37 38 39 38 37 36 36 36 37 37 38 38 38 39 39 40 40 41 41 42 42 42 42 43 43 44 44 44 44 45 44 45 44 44
36 37 36 35 34 34 34 34 35 36 38 39 41 39 39 39 38 37 37 38 38 39 39 39 39 40 40 41 42 42 43 43 43 43 43 43 44 44 44 45 45 45 45 46
36 37 38 37 35 35 35 36 36 37 38 40 42 42 39 40 40 40 40 39 39 40 40 39 39 40 41 42 42 43 44 44 44 44 44 44 44 45 45 46 46 47 47 47
37 38 39 39 38 37 37 37 37 38 39 40 41 42 40 40 41 41 41 41 41 40 41 41 40 40 41 42 42 43 44 45 45 45 46 46 46 46 47 47 47 48 49 49
38 39 39 40 39 38 38 37 37 39 40 40 40 39 39 39 40 42 41 41 42 42 42 43 42 41 41 42 42 43 44 46 46 47 48 48 48 48 48 49 49 50 50 51
38 39 39 39 38 39 39 39 39 40 40 41 39 38 37 38 40 42 42 42 43 44 44 44 44 43 43 43 43 44 45 45 46 48 48 49 49 50 50 50 50 51 52 52
38 39 39 39 39 39 40 40 40 40 40 40 39 38 36 38 40 41 41 41 42 43 44 44 44 44 44 45 45 45 46 46 47 48 48 49 49 50 51 51 52 52 52 53
38 38 38 39 39 40 41 38 39 39 39 39 39 37 37 38 40 41 42 42 42 43 43 44 44 43 43 43 44 44 45 45 46 46 47 48 49 49 50 50 51 51 51 51
37 37 38 39 38 41 38 37 37 38 38 38 39 38 37 38 40 41 42 43 43 43 43 43 44 44 44 44 44 44 45 45 45 45 46 46 47 48 49 49 49 48 49 49
37 38 39 39 39 40 37 36 36 37 37 37 38 38 38 39 41 41 42 42 42 42 42 42 43 43 44 44 45 45 45 45 45 46 46 46 46 47 48 48 48 48 48 48
37 37 39 39 40 40 37 36 36 38 38 36 37 38 39 41 42 41 41 41 41 41 41 41 42 42 43 44 44 45 45 45 45 46 46 47 47 47 47 48 48 48 48 48
38 38 39 39 40 40 37 37 38 39 38 37 38 38 39 40 40 40 39 40 40 40 41 41 41 42 42 43 43 43 44 45 46 47 47 47 47 48 48 48 48 48 49 49
38 38 39 39 40 39 37 38 38 39 39 39 40 40 40 40 40 40 40 40 40 41 41 41 41 41 42 43 44 44 44 45 46 47 47 48 48 48 48 48 48 48 48 48
39 39 39 39 39 38 37 38 38 38 40 41 41 41 41 41 40 41 41 41 41 41 41 41 42 42 42 43 43 44 44 44 44 45 45 46 47 47 47 47 47 47 47 47
40 39 39 40 39 39 38 38 38 39 39 40 40 41 41 41 40 41 41 41 41 41 41 41 42 42 43 43 44 44 44 44 44 45 45 45 45 46 45 45 46 46 46 46
40 40 41 41 39 39 39 39 39 39 40 40 41 41 41 41 41 42 42 41 41 42 42 42 42 42 42 42 43 44 44 45 45 45 45 45 45 45 44 44 45 45 45 45
39 39 40 41 39 39 39 39 39 40 41 41 42 43 43 43 43 43 42 42 42 43 43 42 42 42 42 43 43 43 44 44 44 44 44 44 43 43 43 43 43 43 44 45
Wind_Direction
276 271 268 267 267 266 266 266 265 263 262 261 261 262 262 261 261 260 260 260 259 259 258 258 259 258 257 256 256 257 257 257 258 258 258 257 255 254 255 255 256 257 257 257
278 274 271 268 268 268 267 267 266 264 263 263 263 264 262 262 261 261 261 261 261 260 259 259 259 260 259 258 257 257 257 257 257 257 256 257 256 255 256 256 258 259 259 258
282 278 273 270 268 268 268 268 268 268 265 264 266 265 264 263 263 261 261 262 262 261 260 260 260 261 260 259 257 257 257 257 257 257 256 255 256 256 256 257 259 260 260 260
282 280 275 272 269 270 271 269 269 269 267 266 267 269 265 264 264 263 263 262 262 261 261 261 261 261 261 259 259 258 258 258 257 256 256 256 257 257 256 257 258 259 259 261
281 279 277 273 272 273 272 270 269 268 267 267 267 271 269 267 267 265 264 263 263 262 262 262 262 261 261 259 259 258 257 257 256 256 256 257 258 258 257 258 259 259 258 258
280 278 276 275 275 273 271 270 269 269 267 267 268 271 271 269 269 268 266 265 264 264 263 263 263 262 261 260 258 257 256 256 256 256 257 257 257 257 257 257 259 259 258 259
280 278 277 276 275 273 272 271 270 270 269 270 269 269 271 272 272 271 270 269 267 265 264 264 265 264 263 261 259 258 257 256 256 256 257 257 257 256 256 257 258 258 259 260
281 279 278 276 275 274 272 270 270 270 270 271 271 271 272 273 273 272 271 271 270 269 266 266 266 265 263 262 261 259 258 257 257 257 258 257 257 257 257 258 259 259 259 259
279 279 279 277 275 273 272 270 269 270 271 271 271 273 272 273 274 273 272 272 271 271 269 267 266 265 263 262 261 260 260 260 259 258 258 258 258 259 259 260 260 260 261 261
277 278 278 277 275 273 273 272 270 270 271 272 272 272 274 275 274 274 273 273 273 273 271 269 267 265 263 263 262 261 261 261 261 260 259 259 259 259 260 261 262 262 262 262
276 276 276 276 275 275 274 272 271 272 272 272 273 273 274 276 275 275 274 273 272 272 271 270 268 266 264 263 263 262 261 262 262 261 261 262 262 262 262 262 263 263 264 263
277 276 275 275 275 274 273 272 271 271 273 272 273 273 274 276 277 276 275 273 273 271 271 270 269 267 266 264 263 262 261 262 262 262 263 263 264 264 264 264 265 265 265 265
278 277 276 274 273 273 271 272 271 271 271 272 274 276 276 277 278 277 276 275 274 272 271 270 269 269 267 265 264 263 262 262 262 262 263 263 264 265 265 265 265 266 266 267
277 275 274 274 274 274 272 271 270 270 270 272 274 277 277 278 278 277 276 276 274 273 272 271 270 269 268 267 265 264 264 263 263 263 264 264 265 265 265 266 266 267 267 267
276 275 274 272 272 271 271 271 269 269 270 272 274 274 276 277 277 277 277 276 275 274 273 271 270 269 268 267 266 266 265 265 264 264 265 265 265 266 266 266 267 267 267 267
277 276 274 272 271 271 269 271 271 270 271 271 273 274 275 276 276 276 276 277 276 275 274 272 271 270 269 268 267 267 266 266 266 265 265 265 265 265 266 266 267 267 268 268
279 278 276 274 272 271 269 271 272 271 271 272 274 277 277 275 276 276 276 276 276 275 274 273 271 271 270 270 269 269 268 268 267 267 267 266 266 266 266 266 267 267 267 267
278 277 277 278 275 271 274 273 273 274 273 272 273 275 276 276 275 276 276 277 276 275 275 274 272 271 271 270 269 269 269 268 268 268 268 268 268 267 267 267 268 268 267 267
276 276 277 278 277 276 273 274 276 276 274 273 273 274 276 278 277 276 276 276 276 276 275 273 273 272 272 271 271 270 270 269 269 269 269 269 270 270 269 268 268 269 269 269
275 275 275 275 276 276 277 276 275 276 276 275 275 275 277 278 278 278 277 276 276 276 275 275 274 274 273 273 272 271 269 268 269 270 270 270 270 270 270 269 269 270 270 269
274 274 274 274 275 277 278 277 275 275 277 276 276 277 278 279 279 279 277 276 276 275 275 276 276 276 275 273 272 271 269 269 269 270 270 270 270 270 270 270 270 269 269 269
274 274 274 274 275 278 279 277 275 276 276 275 275 276 278 279 279 278 277 276 276 276 276 276 276 275 275 274 273 272 272 271 271 271 270 270 270 269 270 269 269 269 269 269
273 274 274 274 276 278 277 276 275 274 275 275 275 277 278 279 279 279 278 278 277 276 276 276 276 276 276 275 275 274 273 273 272 272 271 271 270 269 269 269 269 269 269 269
273 273 273 274 274 275 275 274 275 274 274 274 275 277 278 278 278 278 278 278 277 276 276 276 277 276 276 276 276 275 274 273 273 273 272 271 271 270 270 270 270 270 269 269
274 274 273 273 274 274 273 273 273 273 273 273 274 276 277 277 278 279 279 279 278 278 278 277 277 277 277 276 276 275 274 274 273 273 273 272 271 270 270 270 270 270 270 270
274 273 273 273 273 272 272 272 273 273 273 273 274 276 276 277 278 279 279 279 279 279 278 278 278 277 276 276 276 276 275 274 274 274 273 273 272 271 271 271 271 271 271 271
Height
5675 5676 5676 5677 5677 5678 5678 5678 5679 5681 5681 5682 5683 5686 5688 5688 5689 5690 5692 5693 5694 5695 5696 5697 5698 5700 5701 5702 5704 5706 5707 5709 5710 5711 5712 5714 5715 5717 5718 5719 5721 5722 5724 5726
5670 5670 5670 5669 5670 5671 5671 5671 5672 5673 5673 5674 5676 5678 5680 5680 5681 5682 5683 5684 5685 5687 5688 5689 5690 5691 5693 5694 5696 5697 5699 5700 5701 5702 5704 5705 5706 5708 5710 5711 5713 5714 5716 5717
5662 5664 5663 5662 5663 5663 5664 5664 5664 5665 5666 5667 5667 5669 5672 5673 5673 5674 5675 5676 5677 5678 5680 5680 5681 5683 5684 5685 5686 5688 5690 5691 5692 5693 5695 5696 5698 5699 5701 5703 5704 5706 5707 5708
5655 5656 5656 5655 5656 5655 5656 5657 5657 5657 5657 5658 5659 5659 5664 5664 5665 5666 5666 5667 5668 5670 5671 5672 5673 5674 5675 5676 5677 5679 5680 5682 5683 5685 5686 5687 5689 5691 5692 5694 5696 5697 5698 5699
5649 5649 5649 5649 5649 5648 5649 5650 5650 5649 5649 5650 5651 5650 5654 5655 5656 5657 5658 5659 5659 5661 5662 5663 5663 5664 5665 5667 5668 5669 5671 5672 5674 5675 5677 5678 5680 5682 5683 5685 5686 5688 5689 5690
5642 5642 5642 5642 5642 5641 5641 5642 5641 5641 5640 5641 5644 5643 5644 5646 5647 5648 5649 5650 5650 5651 5652 5653 5654 5655 5656 5657 5658 5659 5661 5663 5664 5666 5667 5669 5670 5672 5673 5675 5677 5678 5679 5680
5635 5635 5634 5634 5634 5634 5633 5633 5632 5631 5631 5633 5635 5634 5636 5638 5639 5639 5640 5640 5641 5642 5643 5643 5644 5645 5646 5647 5648 5650 5651 5653 5654 5656 5658 5659 5661 5662 5664 5665 5667 5668 5669 5670
5626 5627 5627 5626 5626 5626 5626 5625 5625 5624 5623 5624 5626 5626 5630 5631 5631 5631 5631 5631 5632 5632 5633 5634 5634 5635 5636 5637 5638 5639 5641 5643 5644 5646 5648 5649 5651 5652 5653 5655 5656 5658 5659 5660
5617 5618 5618 5618 5618 5618 5617 5617 5618 5616 5615 5615 5616 5618 5621 5622 5622 5622 5622 5622 5622 5623 5623 5624 5624 5625 5626 5627 5628 5629 5631 5632 5634 5635 5637 5638 5640 5641 5643 5644 5645 5646 5647 5649
5609 5608 5610 5609 5609 5609 5610 5609 5609 5607 5606 5605 5607 5609 5611 5613 5613 5613 5614 5613 5613 5613 5613 5614 5614 5615 5616 5617 5618 5619 5620 5622 5623 5624 5625 5627 5629 5630 5631 5633 5634 5635 5636 5637
5599 5599 5600 5600 5600 5600 5601 5601 5599 5598 5598 5598 5597 5602 5603 5603 5603 5604 5604 5603 5603 5604 5604 5604 5604 5605 5605 5606 5607 5608 5610 5611 5612 5613 5614 5616 5617 5618 5620 5621 5622 5623 5624 5625
5590 5589 5589 5591 5591 5591 5591 5591 5591 5591 5589 5589 5588 5593 5594 5594 5593 5593 5593 5593 5593 5594 5594 5594 5594 5594 5595 5596 5596 5597 5598 5599 5601 5602 5603 5604 5605 5606 5608 5609 5610 5611 5612 5613
5580 5579 5579 5579 5582 5581 5581 5582 5581 5580 5579 5579 5578 5583 5584 5584 5583 5582 5582 5582 5583 5583 5583 5583 5583 5583 5584 5584 5585 5586 5586 5588 5589 5590 5591 5592 5593 5594 5595 5596 5597 5598 5599 5600
5570 5570 5571 5571 5571 5570 5570 5572 5571 5569 5568 5569 5570 5573 5574 5573 5572 5571 5571 5571 5571 5571 5571 5571 5572 5572 5572 5572 5573 5574 5574 5575 5576 5577 5579 5580 5581 5582 5583 5583 5584 5585 5586 5586
5559 5559 5560 5560 5560 5560 5560 5561 5561 5560 5560 5559 5561 5562 5564 5563 5561 5561 5560 5560 5559 5559 5559 5559 5560 5560 5560 5561 5561 5561 5562 5562 5563 5564 5565 5566 5567 5568 5569 5570 5570 5571 5571 5572
5549 5548 5548 5549 5549 5548 5548 5550 5549 5549 5550 5549 5550 5552 5554 5552 5551 5549 5549 5548 5548 5547 5547 5547 5547 5547 5547 5548 5548 5548 5549 5549 5550 5551 5551 5552 5553 5554 5554 5555 5556 5556 5556 5557
5539 5538 5537 5537 5538 5536 5537 5541 5540 5539 5540 5540 5539 5543 5542 5541 5539 5538 5537 5536 5535 5535 5535 5534 5534 5534 5534 5534 5534 5535 5535 5535 5536 5536 5537 5537 5538 5539 5539 5540 5540 5541 5541 5541
5529 5528 5525 5525 5526 5524 5531 5531 5530 5529 5529 5530 5529 5530 5530 5529 5528 5527 5526 5525 5524 5523 5523 5522 5522 5522 5521 5521 5521 5521 5521 5522 5522 5522 5523 5523 5523 5524 5524 5525 5526 5526 5526 5527
5519 5518 5516 5515 5513 5513 5520 5521 5519 5518 5519 5520 5519 5519 5519 5518 5516 5516 5515 5513 5512 5511 5510 5510 5509 5509 5508 5508 5508 5508 5508 5508 5508 5509 5509 5509 5509 5509 5510 5510 5511 5511 5512 5512
5509 5508 5507 5505 5503 5503 5511 5511 5509 5508 5507 5510 5508 5507 5507 5505 5504 5505 5503 5502 5500 5499 5498 5498 5497 5496 5495 5494 5494 5494 5494 5494 5494 5495 5495 5495 5495 5495 5496 5496 5496 5496 5497 5497
5498 5497 5496 5495 5492 5493 5499 5499 5498 5497 5499 5499 5496 5496 5495 5494 5493 5492 5491 5490 5488 5487 5486 5486 5485 5484 5482 5481 5480 5480 5480 5480 5480 5481 5481 5481 5481 5481 5481 5481 5481 5482 5482 5483
5487 5486 5486 5485 5483 5487 5488 5487 5487 5487 5486 5485 5484 5484 5483 5482 5481 5480 5478 5477 5476 5475 5474 5473 5472 5471 5469 5468 5467 5467 5467 5466 5466 5466 5466 5466 5466 5466 5466 5466 5466 5466 5467 5467
5477 5478 5476 5476 5477 5477 5476 5475 5475 5474 5474 5473 5473 5472 5471 5470 5469 5468 5467 5465 5464 5463 5462 5460 5459 5458 5457 5455 5454 5453 5453 5452 5452 5452 5452 5451 5451 5451 5451 5451 5452 5452 5452 5452
5466 5466 5465 5465 5466 5465 5465 5464 5463 5462 5462 5461 5461 5460 5459 5458 5457 5456 5455 5453 5452 5451 5449 5448 5447 5445 5444 5442 5441 5440 5439 5438 5438 5438 5438 5437 5437 5437 5437 5437 5437 5437 5437 5438
5455 5454 5453 5453 5455 5454 5453 5452 5452 5451 5450 5450 5449 5448 5447 5446 5445 5444 5442 5441 5439 5438 5437 5435 5434 5433 5431 5429 5428 5426 5425 5425 5424 5424 5423 5423 5423 5423 5423 5423 5423 5423 5423 5423
5445 5443 5442 5442 5444 5442 5442 5441 5440 5439 5439 5438 5437 5436 5435 5433 5433 5431 5430 5429 5427 5426 5424 5423 5421 5419 5418 5416 5415 5413 5412 5411 5410 5410 5409 5409 5409 5409 5409 5409 5409 5408 5408 5408